Location: Melbourne
(37.8170°S, 144.9670°E)
Time: 12:22:53
(UTC+10:00)

deb Explorer IX - All Passes

Search period start: 25 July 2016 00:00
Search period end: 04 August 2016 00:00
Orbit: 553 x 1126 km, 38.8° (Epoch: 23 July)

Date Brightness Start Highest point End Pass type
(mag) Time Alt. Az. Time Alt. Az. Time Alt. Az.
25 Jul - 00:22:55 10° WNW 00:30:24 78° NNE 00:37:24 10° ESE night (unlit)
25 Jul - 02:11:04 10° W 02:18:26 82° S 02:24:56 10° E night (unlit)
25 Jul - 03:59:21 10° WSW 04:06:15 72° NNW 04:12:08 10° ENE visible
25 Jul - 05:48:04 10° W 05:53:11 26° NW 05:57:40 10° NNE visible
25 Jul - 20:36:42 10° NNE 20:38:28 11° NE 20:40:16 10° ENE visible
25 Jul - 22:18:27 10° NNW 22:25:11 39° NNE 22:31:55 10° E night (unlit)
26 Jul - 00:05:15 10° WNW 00:12:47 80° NNE 00:19:54 10° ESE night (unlit)
26 Jul - 01:53:24 10° W 02:00:51 83° S 02:07:29 10° E night (unlit)
26 Jul - 03:41:40 10° WSW 03:48:41 69° NNW 03:54:41 10° ENE visible
26 Jul - 05:30:29 10° W 05:35:35 25° NW 05:40:06 10° NNE visible
26 Jul - 20:18:17 10° NNE 20:20:47 12° NE 20:23:19 10° ENE visible
26 Jul - 22:00:44 10° NW 22:07:30 41° NNE 22:14:22 10° E night (unlit)
26 Jul - 23:47:36 10° WNW 23:55:08 82° NNE 00:02:21 10° E night (unlit)
27 Jul - 01:35:44 10° W 01:43:14 83° S 01:50:00 10° E night (unlit)
27 Jul - 03:24:00 10° WSW 03:31:05 67° NNW 03:37:14 10° ENE visible
27 Jul - 05:12:52 10° W 05:17:58 24° NW 05:22:31 10° NNE visible
27 Jul - 20:00:05 10° NNE 20:03:06 13° NE 20:06:09 10° ENE visible
27 Jul - 21:43:02 10° NW 21:49:49 43° NNE 21:56:48 10° E visible
27 Jul - 23:29:57 10° WNW 23:37:28 84° NNE 23:44:47 10° E night (unlit)
28 Jul - 01:18:04 10° W 01:25:36 84° S 01:32:30 10° E night (unlit)
28 Jul - 03:06:18 10° WSW 03:13:28 65° NNW 03:19:44 10° ENE visible
28 Jul - 04:55:16 10° W 05:00:21 23° NW 05:04:54 10° N visible
28 Jul - 19:42:02 10° NNE 19:45:23 14° NE 19:48:52 10° ENE visible
28 Jul - 21:25:20 10° NW 21:32:08 45° NNE 21:39:11 10° E visible
28 Jul - 23:12:20 10° WNW 23:19:49 86° NNE 23:27:13 10° E night (unlit)
29 Jul - 01:00:25 10° W 01:07:58 84° S 01:14:59 10° E night (unlit)
29 Jul - 02:48:37 10° WSW 02:55:50 63° NNW 03:02:13 10° NE visible
29 Jul - 04:37:40 10° W 04:42:42 22° NW 04:47:16 10° N visible
29 Jul - 19:24:02 10° NNE 19:27:41 15° NE 19:31:28 10° ENE visible
29 Jul - 21:07:41 10° NW 21:14:25 47° NNE 21:21:33 10° E visible
29 Jul - 22:54:42 10° WNW 23:02:09 88° NNE 23:09:36 10° E night (unlit)
30 Jul - 00:42:45 10° W 00:50:19 85° S 00:57:27 10° E night (unlit)
30 Jul - 02:30:55 10° WSW 02:38:10 60° NNW 02:44:41 10° NE night (unlit)
30 Jul - 04:20:04 10° W 04:25:03 21° NW 04:29:35 10° N visible
30 Jul - 19:06:08 10° N 19:09:59 16° NE 19:14:01 10° ENE visible
30 Jul - 20:50:01 10° NW 20:56:44 49° NNE 21:03:54 10° E visible
30 Jul - 22:37:05 10° WNW 22:44:28 89° N 22:51:59 10° E night (unlit)
31 Jul - 00:25:05 10° W 00:32:40 86° S 00:39:53 10° E night (unlit)
31 Jul - 02:13:13 10° WSW 02:20:30 58° NNW 02:27:06 10° NE night (unlit)
31 Jul - 04:02:28 10° W 04:07:21 20° NW 04:11:51 10° N visible
31 Jul - 18:48:16 10° N 18:52:16 17° NE 18:56:31 10° E visible
31 Jul - 20:32:23 10° NW 20:39:02 52° NNE 20:46:14 10° E visible
31 Jul - 22:19:28 10° W 22:26:47 89° SSW 22:34:20 10° E visible
01 Aug - 00:07:26 10° W 00:15:00 87° S 00:22:18 10° E night (unlit)
01 Aug - 01:55:32 10° W 02:02:49 56° NNW 02:09:31 10° NE night (unlit)
01 Aug - 03:44:54 10° W 03:49:39 19° NW 03:54:05 10° N night (unlit)
01 Aug - 18:30:27 10° N 18:34:34 18° NE 18:38:59 10° E visible
01 Aug - 20:14:46 10° NW 20:21:20 54° NNE 20:28:32 10° E visible
01 Aug - 22:01:53 10° W 22:09:07 88° S 22:16:41 10° E visible
01 Aug - 23:49:47 10° W 23:57:18 88° S 00:04:41 10° E night (unlit)
02 Aug - 01:37:51 10° W 01:45:07 54° NNW 01:51:53 10° NE night (unlit)
02 Aug - 03:27:20 10° W 03:31:57 18° NW 03:36:17 10° N night (unlit)
02 Aug - 18:12:40 10° N 18:16:52 19° NE 18:21:25 10° E visible
02 Aug - 19:57:10 10° NW 20:03:38 56° NNE 20:10:50 10° E visible
02 Aug - 21:44:17 10° W 21:51:26 87° S 21:59:01 10° E visible
02 Aug - 23:32:09 10° W 23:39:36 90° S 23:47:04 10° E night (unlit)
03 Aug - 01:20:10 10° W 01:27:24 51° NNW 01:34:13 10° NE night (unlit)
03 Aug - 03:09:48 10° W 03:14:13 17° NW 03:18:25 10° N night (unlit)
03 Aug - 17:54:55 10° N 17:59:10 19° NE 18:03:49 10° E visible
03 Aug - 19:39:35 10° NW 19:45:57 58° NNE 19:53:06 10° ESE visible
03 Aug - 21:26:43 10° W 21:33:45 86° S 21:41:19 10° E visible
03 Aug - 23:14:30 10° W 23:21:55 89° N 23:29:24 10° ENE night (unlit)
